GW4546 Weather Reports


time (UTC)temp
C
wind
direction
speed
KPH
gust
KPH
rain 1hr
cm
rain 24hr
cm
rain mn
cm
humidity
%
barometer
mb
20260906141123 27 167 3.2 3.2 0.00 0.99 0.99 79 1016.3
20260906140622 26 173 0.0 0.0 0.00 0.99 0.99 79 1016.4
20260906140117 26 187 0.0 0.0 0.00 0.99 0.99 83 1016.4
20260906135614 27 111 1.6 1.6 0.00 0.99 0.99 79 1016.3
20260906135110 27 172 0.0 0.0 0.00 0.99 0.99 82 1016.5
20260906125624 22 163 1.6 3.2 0.00 0.99 0.99 99 1017.1
20260906125118 22 163 1.6 3.2 0.00 0.99 0.99 99 1017.1
20260906124614 22 168 0.0 0.0 0.00 0.99 0.99 99 1017.1
20260906124109 22 196 0.0 0.0 0.00 0.99 0.99 99 1017.0
20260906123608 22 172 0.0 0.0 0.00 0.99 0.99 99 1016.9
20260906123103 22 171 0.0 0.0 0.00 0.99 0.99 99 1016.9
20260906122602 21 166 0.0 0.0 0.00 0.99 0.99 99 1017.0
20260906122058 22 176 0.0 0.0 0.00 0.99 0.99 99 1016.9
20260906121554 22 168 0.0 0.0 0.00 0.99 0.99 99 1016.8
20260906121050 21 164 0.0 0.0 0.00 0.99 0.99 99 1016.7
20260906120546 21 171 0.0 0.0 0.00 0.99 0.99 99 1016.8
20260906120043 21 160 0.0 0.0 0.00 0.99 0.99 99 1016.7
20260906115542 21 159 0.0 0.0 0.00 0.99 0.99 99 1016.7
20260906115038 21 171 0.0 0.0 0.00 0.99 0.99 99 1016.3
20260906114532 21 174 0.0 0.0 0.00 0.99 0.99 99 1016.4
20260906114028 21 166 0.0 0.0 0.00 0.99 0.99 99 1016.3
20260906113527 21 165 0.0 0.0 0.00 0.99 0.99 99 1016.3
20260906113022 21 163 0.0 0.0 0.00 0.99 0.99 99 1016.1
20260906112517 21 169 0.0 0.0 0.00 0.99 0.99 99 1016.2
20260906112013 21 160 0.0 0.0 0.00 0.99 0.99 99 1015.9
20260906111507 21 138 0.0 0.0 0.00 0.99 0.99 99 1016.0
20260906111002 21 176 0.0 0.0 0.00 0.99 0.99 99 1015.7
20260906110456 21 132 0.0 0.0 0.00 0.99 0.99 99 1015.7
20260906105955 21 174 0.0 0.0 0.00 0.99 0.99 99 1015.8
20260906105452 21 174 0.0 0.0 0.00 0.99 0.99 99 1015.7
20260906104948 21 169 0.0 0.0 0.00 0.99 0.99 99 1015.7
20260906104446 21 173 0.0 0.0 0.00 0.99 0.99 99 1015.8
20260906103945 21 175 0.0 0.0 0.00 0.99 0.99 99 1015.7
20260906103444 21 175 0.0 0.0 0.00 0.99 0.99 99 1016.0
20260906102939 21 172 0.0 0.0 0.00 0.99 0.99 99 1016.0
20260906102438 21 173 0.0 0.0 0.00 0.99 0.99 99 1015.9
20260906101933 21 173 0.0 0.0 0.00 0.99 0.99 99 1016.0
20260906101429 21 173 0.0 0.0 0.00 0.99 0.99 99 1016.0
20260906100924 21 174 0.0 0.0 0.00 0.99 0.99 99 1015.9
20260906100423 21 176 0.0 0.0 0.00 0.99 0.99 99 1016.0
20260906095918 21 174 0.0 0.0 0.00 0.99 0.99 99 1015.9
20260906095414 21 168 0.0 0.0 0.00 0.99 0.99 99 1015.9
20260906094913 21 179 0.0 0.0 0.00 0.99 0.99 99 1016.1
20260906094408 21 183 0.0 0.0 0.00 0.99 0.99 99 1015.9
20260906093904 21 172 0.0 0.0 0.00 0.99 0.99 99 1016.0
20260906093400 21 175 0.0 0.0 0.00 0.99 0.99 99 1016.1
20260906092855 21 172 0.0 0.0 0.00 0.99 0.99 98 1016.2
20260906092355 22 192 0.0 0.0 0.00 0.99 0.99 98 1016.1
20260906091850 22 149 0.0 1.6 0.00 0.99 0.99 98 1015.9
20260906091346 22 43 4.8 4.8 0.00 0.99 0.99 98 1016.1
20260906090842 22 181 3.2 3.2 0.00 0.99 0.99 98 1016.1
20260906090342 22 229 4.8 4.8 0.00 0.99 0.99 99 1016.2
20260906085836 22 178 1.6 1.6 0.00 0.99 0.99 99 1016.3
20260906085335 22 190 0.0 0.0 0.00 0.99 0.99 99 1015.8
20260906084830 22 190 1.6 1.6 0.00 0.99 0.99 99 1015.7
20260906084330 21 186 0.0 0.0 0.00 0.99 0.99 99 1015.7
20260906083825 22 184 1.6 1.6 0.00 0.99 0.99 99 1015.8
20260906083320 22 175 0.0 0.0 0.00 0.99 0.99 99 1015.9
20260906082814 22 171 0.0 0.0 0.00 0.99 0.99 99 1015.7
20260906082310 22 174 0.0 0.0 0.00 0.99 0.99 99 1016.0
20260906081805 22 196 0.0 0.0 0.00 0.99 0.99 99 1015.6
20260906081301 22 173 0.0 0.0 0.00 0.99 0.99 99 1015.8
20260906080757 22 185 0.0 0.0 0.00 0.99 0.99 99 1015.7
20260906080253 22 177 0.0 0.0 0.00 0.99 0.99 99 1016.4
20260906075747 22 176 0.0 0.0 0.00 0.99 0.99 99 1016.2
20260906075247 22 173 0.0 0.0 0.00 0.99 0.99 99 1016.1
20260906074743 22 171 0.0 0.0 0.00 0.99 0.99 99 1016.0
20260906074242 22 175 0.0 0.0 0.00 0.99 0.99 99 1016.3
20260906073742 22 178 0.0 0.0 0.18 0.99 0.99 98 1016.3
20260906073236 22 177 0.0 0.0 0.18 0.99 0.99 98 1016.3
20260906072732 22 165 0.0 0.0 0.13 0.97 0.97 98 1016.9
20260906072228 22 182 0.0 0.0 0.13 0.97 0.97 98 1017.0
20260906071724 22 111 3.2 4.8 0.00 0.94 0.94 97 1017.2
20260906071224 22 119 0.0 1.6 0.00 0.94 0.94 98 1017.0
20260906070720 22 170 0.0 0.0 0.48 0.94 0.94 97 1016.9
20260906070215 22 190 3.2 3.2 1.07 0.94 0.94 97 1017.3
20260906065715 22 178 1.6 1.6 1.19 0.89 0.89 96 1017.9
20260906065210 22 134 0.0 1.6 1.37 0.79 0.79 96 1018.0
20260906064706 22 3 6.4 9.7 2.03 0.69 0.69 96 1017.8
20260906064201 22 326 9.7 14.5 2.46 0.56 0.56 95 1017.9
20260906063656 22 231 8.0 11.3 2.11 0.36 0.36 95 1017.8
20260906063152 23 5 8.0 12.9 0.89 0.15 0.15 92 1017.9
20260906062648 25 358 12.9 17.7 0.00 0.00 0.00 83 1017.9
20260906062146 25 28 6.4 6.4 0.00 0.00 0.00 81 1017.7
20260906061643 25 46 6.4 6.4 0.00 0.00 0.00 83 1017.5
20260906061142 25 70 3.2 3.2 0.00 0.00 0.00 86 1017.7
20260906060639 24 57 4.8 4.8 0.00 0.00 0.00 88 1017.2
20260906060136 23 19 6.4 6.4 0.00 0.00 0.00 90 1016.8
20260906055631 23 65 3.2 3.2 0.00 0.00 0.00 91 1016.4
20260906055126 23 177 0.0 0.0 0.00 0.00 0.00 92 1016.2
20260906054621 23 180 0.0 0.0 0.00 0.00 0.00 92 1015.9
20260906054116 23 171 0.0 0.0 0.00 0.00 0.00 92 1016.0
20260906053613 23 166 0.0 0.0 0.00 0.00 0.00 92 1016.2
20260906053108 23 174 0.0 0.0 0.00 0.00 0.00 92 1016.1
20260906052604 23 169 0.0 0.0 0.00 0.00 0.00 92 1016.2
20260906052100 23 159 0.0 0.0 0.00 0.00 0.00 92 1016.1
20260906051556 23 163 0.0 0.0 0.00 0.00 0.00 92 1016.1
20260906051051 23 170 0.0 0.0 0.00 0.00 0.00 92 1015.8
20260906050546 23 173 0.0 1.6 0.00 0.00 0.00 91 1015.9
20260906050041 23 94 1.6 3.2 0.00 0.00 0.00 91 1015.8
20260906045539 23 155 0.0 1.6 0.00 0.00 0.00 91 1015.5
20260906045035 23 137 1.6 1.6 0.00 0.00 0.00 91 1015.7
20260906044531 23 141 1.6 1.6 0.00 0.00 0.00 91 1016.0
20260906044026 23 154 0.0 0.0 0.00 0.00 0.00 90 1016.0
20260906043521 23 142 1.6 1.6 0.00 0.00 0.00 91 1016.0
20260906043018 23 175 0.0 0.0 0.00 0.00 0.00 91 1016.0
20260906042517 23 171 0.0 0.0 0.00 0.00 0.00 90 1016.0
20260906042017 23 139 0.0 1.6 0.00 0.00 0.00 90 1016.2
20260906041513 23 170 0.0 0.0 0.00 0.00 0.00 90 1016.1
20260906041013 23 173 0.0 0.0 0.00 0.00 0.00 89 1016.1
20260906040508 23 174 0.0 0.0 0.00 0.00 0.00 89 1016.3
20260906040003 23 178 0.0 0.0 0.00 0.00 0.00 88 1016.4
20260906035458 23 123 1.6 1.6 0.00 0.00 0.00 89 1016.2
20260906034954 23 142 0.0 0.0 0.00 0.00 0.00 89 1016.2
20260906034454 23 173 0.0 0.0 0.00 0.00 0.00 89 1016.2
20260906033950 23 173 0.0 0.0 0.00 0.00 0.00 88 1016.1
20260906033450 23 173 0.0 0.0 0.00 0.00 0.00 87 1016.3
20260906032946 24 170 0.0 0.0 0.00 0.00 0.00 86 1016.2
20260906032442 24 165 0.0 1.6 0.00 0.00 0.00 85 1016.2
20260906031936 24 155 3.2 3.2 0.00 0.00 0.00 85 1016.0
20260906031432 24 125 0.0 0.0 0.00 0.00 0.00 85 1015.9
20260906030927 24 157 0.0 0.0 0.00 0.00 0.00 85 1016.1
20260906030421 24 151 0.0 0.0 0.00 0.00 0.00 85 1015.9
20260906025916 24 155 1.6 1.6 0.00 0.00 0.00 85 1015.8
20260906025410 24 136 1.6 1.6 0.00 0.00 0.00 84 1015.6
20260906024909 25 176 0.0 0.0 0.00 0.00 0.00 83 1015.8
20260906024408 25 134 1.6 1.6 0.00 0.00 0.00 83 1015.7
20260906023904 24 138 1.6 1.6 0.00 0.00 0.00 84 1015.8
20260906023400 24 168 0.0 0.0 0.00 0.00 0.00 84 1015.7
20260906022855 24 168 0.0 0.0 0.00 0.00 0.00 84 1015.7
20260906022349 24 168 0.0 0.0 0.00 0.00 0.00 83 1015.5
20260906021845 25 164 0.0 0.0 0.00 0.00 0.00 82 1015.7
20260906021344 25 178 0.0 0.0 0.00 0.00 0.00 82 1015.5
20260906020839 25 164 0.0 0.0 0.00 0.00 0.00 81 1015.3
20260906020339 25 161 0.0 1.6 0.00 0.00 0.00 81 1015.2
20260906015833 25 161 0.0 0.0 0.00 0.00 0.00 81 1015.2
20260906015332 25 173 0.0 0.0 0.00 0.00 0.00 80 1015.0
20260906014827 25 173 0.0 0.0 0.00 0.00 0.00 80 1015.1
20260906014322 25 173 0.0 0.0 0.00 0.00 0.00 79 1015.1
20260906013818 25 170 0.0 0.0 0.00 0.00 0.00 79 1014.9
20260906013313 25 178 0.0 0.0 0.00 0.00 0.00 78 1014.9
20260906012809 25 174 0.0 1.6 0.00 0.00 0.00 77 1014.9
20260906012309 26 170 0.0 0.0 0.00 0.00 0.00 76 1015.0
20260906011804 26 176 0.0 0.0 0.00 0.00 0.00 75 1014.9
20260906011304 26 173 1.6 1.6 0.00 0.00 0.00 74 1015.1
20260906010800 26 144 1.6 1.6 0.00 0.00 0.00 73 1015.0
20260906010255 26 175 0.0 0.0 0.00 0.00 0.00 74 1015.0
20260906005751 26 150 0.0 1.6 0.00 0.00 0.00 74 1014.9
20260906005250 26 174 0.0 0.0 0.00 0.00 0.00 72 1014.8
20260906004749 26 174 0.0 0.0 0.00 0.00 0.00 71 1014.9
20260906004244 26 174 0.0 0.0 0.00 0.00 0.00 70 1014.7
20260906003738 27 175 0.0 0.0 0.00 0.00 0.00 70 1014.7
20260906003234 27 175 0.0 0.0 0.00 0.00 0.00 69 1014.8
20260906002729 27 175 0.0 0.0 0.00 0.00 0.00 68 1014.9
20260906002228 27 168 0.0 0.0 0.00 0.00 0.00 67 1014.9
20260906001724 28 170 0.0 0.0 0.00 0.00 0.00 66 1014.9
20260906001220 28 161 3.2 4.8 0.00 0.00 0.00 64 1014.8
20260906000715 28 173 0.0 0.0 0.00 0.00 0.00 63 1014.9
20260906000212 28 165 0.0 0.0 0.00 0.00 0.00 62 1014.7
20260905235709 29 103 1.6 1.6 0.00 0.00 0.00 60 1014.8
20260905235204 29 144 1.6 1.6 0.00 0.00 0.00 61 1015.0
20260905234700 29 173 0.0 0.0 0.00 0.00 0.00 60 1015.1
20260905234155 30 167 1.6 3.2 0.00 0.00 0.00 59 1014.8
20260905233650 30 135 1.6 1.6 0.00 0.00 0.00 58 1015.1
20260905233149 30 69 4.8 6.4 0.00 0.00 0.00 58 1015.2
20260905232644 30 113 6.4 9.7 0.00 0.00 0.00 57 1015.0
20260905232140 30 56 6.4 9.7 0.00 0.00 0.00 55 1015.3
20260905231635 31 237 3.2 4.8 0.00 0.00 0.00 54 1015.0
20260905231131 31 52 3.2 4.8 0.00 0.00 0.00 53 1015.2
20260905230627 32 53 8.0 11.3 0.00 0.00 0.00 51 1015.2
20260905230125 32 21 9.7 11.3 0.00 0.00 0.00 50 1015.2
20260905225624 33 51 8.0 11.3 0.00 0.00 0.00 49 1014.9
20260905225119 33 159 3.2 4.8 0.00 0.00 0.00 48 1014.8
20260905224613 34 310 3.2 3.2 0.00 0.00 0.00 47 1014.6
20260905224112 35 0 4.8 4.8 0.00 0.00 0.00 46 1014.6
20260905223610 35 76 3.2 6.4 0.00 0.00 0.00 45 1014.6
20260905223106 37 180 4.8 6.4 0.00 0.00 0.00 44 1014.8
20260905222606 37 128 1.6 3.2 0.00 0.00 0.00 43 1014.4
20260905222056 37 173 3.2 3.2 0.00 0.00 0.00 45 1014.4
20260905221552 37 169 0.0 1.6 0.00 0.00 0.00 43 1014.2
20260905221048 37 176 0.0 0.0 0.00 0.00 0.00 44 1014.3
20260905220543 37 10 4.8 6.4 0.00 0.00 0.00 45 1014.3
20260905220039 37 207 3.2 4.8 0.00 0.00 0.00 43 1014.2
20260905215539 37 190 3.2 4.8 0.00 0.00 0.00 44 1014.2
20260905215035 37 29 1.6 1.6 0.00 0.00 0.00 44 1014.1
20260905214530 37 167 3.2 3.2 0.00 0.00 0.00 44 1014.3
20260905214026 37 248 4.8 6.4 0.00 0.00 0.00 44 1014.2
20260905213521 37 222 6.4 6.4 0.00 0.00 0.00 44 1014.2
20260905213016 37 243 3.2 4.8 0.00 0.00 0.00 43 1014.3
20260905212511 37 193 0.0 1.6 0.00 0.00 0.00 43 1014.4
20260905212010 37 170 3.2 3.2 0.00 0.00 0.00 44 1014.4
20260905211506 37 221 6.4 9.7 0.00 0.00 0.00 43 1014.4
20260905211001 37 301 1.6 3.2 0.00 0.00 0.00 46 1014.3
20260905210457 37 212 1.6 3.2 0.00 0.00 0.00 46 1014.2
20260905205955 37 353 4.8 4.8 0.00 0.00 0.00 47 1014.2
20260905205451 37 295 6.4 6.4 0.00 0.00 0.00 46 1014.2
20260905204949 37 234 6.4 6.4 0.00 0.00 0.00 45 1014.3
20260905204445 37 15 6.4 6.4 0.00 0.00 0.00 47 1014.3
20260905203944 37 303 1.6 1.6 0.00 0.00 0.00 44 1014.3
20260905203440 36 172 0.0 1.6 0.00 0.00 0.00 46 1014.5
20260905202935 36 135 1.6 3.2 0.00 0.00 0.00 45 1014.5
20260905202431 37 109 6.4 9.7 0.00 0.00 0.00 43 1014.5
20260905201926 38 352 4.8 6.4 0.00 0.00 0.00 43 1014.6
20260905201421 37 148 3.2 3.2 0.00 0.00 0.00 43 1014.9
20260905200920 37 236 3.2 3.2 0.00 0.00 0.00 46 1015.0
20260905200417 37 195 3.2 4.8 0.00 0.00 0.00 45 1015.0
20260905195914 37 69 4.8 6.4 0.00 0.00 0.00 44 1014.9
20260905195410 37 146 1.6 3.2 0.00 0.00 0.00 44 1015.1
20260905194906 37 34 3.2 3.2 0.00 0.00 0.00 44 1015.2
20260905194400 38 109 8.0 9.7 0.00 0.00 0.00 44 1015.4
20260905193859 37 171 1.6 1.6 0.00 0.00 0.00 45 1015.4
20260905193354 37 209 3.2 6.4 0.00 0.00 0.00 47 1015.4
20260905192850 36 318 6.4 6.4 0.00 0.00 0.00 48 1015.5
20260905192345 37 316 4.8 4.8 0.00 0.00 0.00 48 1015.5
20260905191844 37 164 6.4 9.7 0.00 0.00 0.00 44 1015.7
20260905191344 37 197 3.2 3.2 0.00 0.00 0.00 46 1015.5
20260905190843 37 302 4.8 4.8 0.00 0.00 0.00 45 1015.6
20260905190336 37 68 6.4 9.7 0.00 0.00 0.00 46 1015.9
20260905185835 37 320 4.8 9.7 0.00 0.00 0.00 46 1015.9
20260905185330 37 323 6.4 9.7 0.00 0.00 0.00 45 1016.0
20260905184824 37 354 8.0 11.3 0.00 0.00 0.00 45 1016.0
20260905184323 37 353 6.4 6.4 0.00 0.00 0.00 47 1016.3
20260905183821 37 213 1.6 3.2 0.00 0.00 0.00 49 1016.3
20260905183317 37 92 4.8 4.8 0.00 0.00 0.00 45 1016.5
20260905182812 37 176 0.0 1.6 0.00 0.00 0.00 47 1016.4
20260905182311 37 321 6.4 6.4 0.00 0.00 0.00 46 1016.3
20260905181807 37 332 8.0 9.7 0.00 0.00 0.00 47 1016.4
20260905181306 37 148 4.8 4.8 0.00 0.00 0.00 48 1016.5
20260905180801 37 180 3.2 4.8 0.00 0.00 0.00 45 1016.5
20260905180255 36 289 6.4 6.4 0.00 0.00 0.00 47 1016.5
20260905175749 36 30 6.4 6.4 0.00 0.00 0.00 47 1016.5
20260905175244 36 8 8.0 11.3 0.00 0.00 0.00 49 1016.7
20260905174739 36 249 1.6 1.6 0.00 0.00 0.00 48 1016.8
20260905174235 36 220 4.8 9.7 0.00 0.00 0.00 50 1016.5
20260905173731 36 315 8.0 9.7 0.00 0.00 0.00 50 1016.7
20260905173227 36 175 0.0 0.0 0.00 0.00 0.00 49 1016.9
20260905172721 35 195 3.2 3.2 0.00 0.00 0.00 51 1016.9
20260905172220 35 173 0.0 0.0 0.00 0.00 0.00 54 1017.0
20260905171716 35 170 0.0 1.6 0.00 0.00 0.00 54 1017.1
20260905171213 36 349 11.3 12.9 0.00 0.00 0.00 54 1017.1
20260905170710 36 52 3.2 3.2 0.00 0.00 0.00 53 1017.0
20260905170209 35 35 6.4 6.4 0.00 0.00 0.00 53 1017.3
20260905165704 35 3 4.8 4.8 0.00 0.00 0.00 55 1017.4
20260905165159 35 187 3.2 3.2 0.00 0.00 0.00 56 1017.3
20260905164654 35 176 3.2 3.2 0.00 0.00 0.00 56 1017.4
20260905164153 35 175 6.4 9.7 0.00 0.00 0.00 56 1017.5
20260905163649 35 29 6.4 9.7 0.00 0.00 0.00 56 1017.4
20260905163146 34 216 3.2 4.8 0.00 0.00 0.00 57 1017.6
20260905162642 35 64 4.8 4.8 0.00 0.00 0.00 56 1017.6
20260905162141 35 346 3.2 4.8 0.00 0.00 0.00 56 1017.6
20260905161640 34 167 1.6 3.2 0.00 0.00 0.00 57 1018.0
20260905161138 35 45 3.2 4.8 0.00 0.00 0.00 56 1018.1
20260905160633 34 183 0.0 1.6 0.00 0.00 0.00 56 1018.0
20260905160126 34 338 6.4 6.4 0.00 0.00 0.00 59 1018.1
20260905155621 34 190 6.4 6.4 0.00 0.00 0.00 57 1018.0
20260905155120 33 167 0.0 1.6 0.00 0.00 0.00 59 1018.0
20260905154619 33 16 6.4 9.7 0.00 0.00 0.00 59 1018.2
20260905154115 33 260 3.2 4.8 0.00 0.00 0.00 61 1018.1
20260905153611 33 117 3.2 3.2 0.00 0.00 0.00 61 1018.3
20260905153106 33 171 3.2 3.2 0.00 0.00 0.00 59 1018.0
20260905152601 33 188 0.0 1.6 0.00 0.00 0.00 62 1018.1
20260905152055 32 224 1.6 1.6 0.00 0.00 0.00 63 1018.0
20260905151551 33 173 1.6 1.6 0.00 0.00 0.00 64 1018.2
20260905151046 32 159 0.0 1.6 0.00 0.00 0.00 63 1018.2
20260905150541 33 0 1.6 3.2 0.00 0.00 0.00 62 1018.1
20260905150039 32 172 1.6 1.6 0.00 0.00 0.00 65 1018.2
20260905145532 32 171 0.0 0.0 0.00 0.00 0.00 65 1018.3
20260905145032 31 180 0.0 1.6 0.00 0.00 0.00 68 1018.3
20260905144522 32 202 4.8 4.8 0.00 0.00 0.00 66 1018.4
20260905144021 32 165 1.6 3.2 0.00 0.00 0.00 65 1018.3
20260905143520 31 175 0.0 1.6 0.00 0.00 0.00 69 1018.3
20260905143015 31 192 1.6 3.2 0.00 0.00 0.00 70 1018.3
20260905142514 31 139 0.0 0.0 0.00 0.00 0.00 69 1018.4
20260905142009 31 175 0.0 0.0 0.00 0.00 0.00 71 1018.5
20260905141503 31 173 1.6 1.6 0.00 0.00 0.00 71 1018.5